Regional Weather Roundup
Issued by NWS

Home | Current Version | Previous Version | Graphics & Text | Print | Product List | Glossary On
Versions: 1 2 3 4 5 6 7 8 9 10 11 12 13 14 15 16 17 18 19 20 21 22 23 24 25 26 27 28 29 30 31 32 33 34 35 36 37 38 39 40 41 42 43 44 45 46 47 48 49 50
000
ASUS43 KLMK 012102
RWRKY
KENTUCKY REGIONAL WEATHER ROUNDUP
NATIONAL WEATHER SERVICE LOUISVILLE KY
500 PM EDT WED OCT 01 2014

NOTE "FAIR" INDICATES FEW OR NO CLOUDS BELOW 12,000 FEET
WITH NO SIGNIFICANT WEATHER AND/OR OBSTRUCTIONS TO VISIBILITY.

KYZ001>023-026-027-061>063-070>075-012200-
WESTERN AND SOUTH CENTRAL KENTUCKY

CITY           SKY/WX    TMP DP  RH WIND       PRES   REMARKS
PADUCAH        MOSUNNY   87  60  40 SW12      29.86F
HENDERSON      NOT AVBL
OWENSBORO      MOSUNNY   87  56  34 SW7       29.90F
HOPKINSVILLE   SUNNY     87  56  34 S9        29.91F
BOWLING GREEN  MOSUNNY   86  53  32 SE10      29.93F
GLASGOW        NOT AVBL
$$

KYZ024-025-028>034-038-045-046-053-012200-
NORTH CENTRAL KENTUCKY

CITY           SKY/WX    TMP DP  RH WIND       PRES   REMARKS
LOUISVILLE/SDF MOSUNNY   86  54  33 CALM      29.93F
LOUISVILLE/LOU SUNNY     83  52  34 VRB3      29.94F
FORT KNOX      MOSUNNY   82  59  44 NE6       29.93F
$$

KYZ035>037-039>044-047>052-055>060-089>105-012200-
NORTHEAST KENTUCKY

CITY           SKY/WX    TMP DP  RH WIND       PRES   REMARKS
LEXINGTON      SUNNY     81  58  45 NW5       29.98F
COVINGTON      MOSUNNY   77  54  44 CALM      29.98F
FRANKFORT      SUNNY     80  58  46 VRB5      29.96F
$$

KYZ054-064>069-076>088-106>120-012200-
SOUTHEAST KENTUCKY

CITY           SKY/WX    TMP DP  RH WIND       PRES   REMARKS
JACKSON        SUNNY     78  58  49 CALM      30.01F
LONDON         SUNNY     82  53  36 CALM      30.00F
SOMERSET       MOSUNNY   81  48  32 SW6       29.99F
MIDDLESBORO    SUNNY     80  57  44 S3        30.00S
MONTICELLO     MOCLDY    85  55  35 CALM      29.99F
$$




USA.gov is the U.S. government's official web portal to all federal, state and local government web resources and services.